[[{"header":{"parameterUnit":"m.s-1","parameterCategory":1,"la1":30.2991,"la2":30.254,"lo1":-89.0895,"lo2":-89.0444,"dy":0.0017,"dx":0.0017,"nx":28,"ny":28,"refTime":"2023-05-01T21:00:00:Z","depth":0,"parameterNumber":2,"parameterNumberName":"U-component_of_WINDS"},"data":[0,0,0,0,0,0,0,0,0,0,0,0,0,0,0,0,0,0,0,0,0,0,0,0,0,0,0,0,0,0,0,0,0,0,0,0,0,0,0,0,0,0,0,0,0,0,0,0,0,0,0,0,0,0,0,0,0,0,1.3535,1.3536,0,1.3593,1.3594,1.3594,1.3673,1.3674,1.3675,1.3677,1.3734,1.3735,1.3735,0,0,0,0,0,0,0,0,0,0,0,0,0,1.3492,1.3492,1.3535,1.3536,1.3537,1.3593,1.3594,1.3595,1.3672,1.3674,1.3676,1.3677,1.3734,1.3735,1.3735,0,0,0,0,0,0,0,0,0,0,0,0,0,1.3526,1.3492,1.3535,1.3582,1.3587,1.3593,1.3594,1.3595,1.3672,1.3674,1.3676,1.3678,1.3734,1.3734,1.3735,1.3699,0,0,1.3736,1.3737,0,0,0,0,0,0,0,0,1.3524,1.3528,1.3575,1.3579,1.3584,1.3628,1.36,1.3629,1.3672,1.364,1.3677,1.3679,1.3697,1.3701,1.3707,1.3701,1.3704,1.3736,1.3737,1.3737,1.3737,0,0,0,0,0,0,0,1.3522,1.3526,1.3558,1.3575,1.3581,1.3601,1.3608,1.3606,1.3657,1.3643,1.3649,1.3654,1.37,1.3707,1.3709,1.3705,1.3736,1.3737,1.3737,1.3737,1.3673,1.3671,0,0,0,0,0,0,1.3512,1.3523,1.3556,1.356,1.3559,1.36,1.3608,1.3612,1.3657,1.3666,1.3653,1.3658,1.3705,1.3709,1.3711,1.3673,1.3737,1.3737,1.3738,1.3675,1.3673,1.3671,0,0,0,0,0,0,1.3511,1.3515,1.3554,1.3543,1.355,1.3598,1.3602,1.3612,1.3618,1.3664,1.3674,1.365,1.3707,1.3711,1.3702,1.3676,1.3738,1.3738,1.3678,1.3674,1.3672,1.3594,0,0,0,0,0,0,1.351,1.3514,1.35,1.3542,1.355,1.3543,1.3601,1.3612,1.3619,1.3627,1.3664,1.3672,1.3708,1.37,1.3702,1.3677,1.3738,1.368,1.3676,1.3673,1.3599,1.3588,1.358,0,0,0,0,0,1.3508,1.3475,1.3499,1.3503,1.3534,1.3541,1.3545,1.3588,1.3617,1.3604,1.3634,1.3671,1.3678,1.3699,1.3701,1.3676,1.3682,1.3677,1.3673,1.3603,1.359,1.358,0,0,0,0,0,0,1.3428,1.3482,1.3509,1.3489,1.351,1.3554,1.3539,1.3573,1.3586,1.3592,1.3644,1.3652,1.3636,1.3656,1.3677,1.3644,1.3686,1.3682,1.3632,1.362,1.3611,1.3606,1.3739,0,0,0,0,0,1.3408,1.341,1.3456,1.3434,1.3444,1.3489,1.3494,1.3525,1.3549,1.3558,1.3587,1.3608,1.3616,1.3619,1.3628,1.3603,1.3612,1.3587,1.3577,1.3569,1.3564,1.3553,1.3543,1.3656,1.3656,1.3656,0,0,1.3367,1.3397,1.3394,1.3419,1.3439,1.3439,1.3496,1.3494,1.3495,1.3557,1.3551,1.3573,1.36,1.3583,1.3577,1.3598,1.3536,1.3563,1.3556,1.3556,1.3547,1.3537,1.3527,1.3653,1.3654,1.3654,0,0,1.3292,1.3314,1.3299,1.3318,1.3348,1.3379,1.3376,1.3415,1.3433,1.3427,1.3475,1.3477,1.3488,1.3506,1.3516,1.345,1.3485,1.3452,1.3401,1.3389,1.338,1.3373,1.3349,1.334,1.3447,1.3447,1.3447,0,1.3237,1.3239,1.3287,1.3282,1.3292,1.335,1.3335,1.3351,1.3382,1.3388,1.3412,1.3429,1.3451,1.3439,1.3423,1.343,1.3427,1.3447,1.3378,1.3371,1.3364,1.3343,1.3334,1.3443,1.3443,1.3444,1.3444,0,1.317,1.3171,1.3155,1.3185,1.3193,1.3183,1.3229,1.3232,1.3263,1.3291,1.3285,1.3315,1.3331,1.3331,1.336,1.3323,1.3336,1.3368,1.3411,1.3348,1.3329,1.3321,1.3437,1.3438,1.3439,1.344,0,0,1.3045,1.3102,1.3095,1.311,1.3148,1.315,1.3143,1.3161,1.3162,1.3182,1.3178,1.3187,1.3218,1.3229,1.3262,1.3252,1.3198,1.3286,1.3287,1.3268,1.316,1.3135,1.3124,1.3223,1.3221,1.322,1.3158,0,1.2977,1.2969,1.3012,1.2992,1.2994,1.305,1.3044,1.3067,1.3094,1.31,1.313,1.3135,1.3175,1.3183,1.3176,1.3206,1.3177,1.3212,1.3219,1.3219,1.3209,1.3114,1.3088,1.3027,1.315,1.3149,1.3148,0,1.2896,1.2913,1.2893,1.2934,1.2936,1.293,1.295,1.2955,1.2983,1.3003,1.3017,1.3055,1.3052,1.3093,1.309,1.3112,1.3118,1.3134,1.3132,1.3134,1.3179,1.3113,1.3009,1.2999,1.3137,1.3138,1.3138,0,1.2807,1.2824,1.2815,1.2826,1.2873,1.2868,1.2887,1.2917,1.2925,1.2942,1.2948,1.2965,1.2974,1.2986,1.3028,1.3054,1.3019,1.3064,1.3036,1.3035,1.3025,1.3025,1.292,1.3029,1.303,1.303,1.303,0,1.2726,1.2712,1.2776,1.277,1.2756,1.2807,1.2791,1.2816,1.2843,1.2843,1.2893,1.2892,1.2948,1.2953,1.2986,1.2978,1.2982,1.2998,1.3007,1.2993,1.2991,1.2997,1.3002,1.3027,1.3028,1.3028,1.3029,0,1.2623,1.2665,1.2659,1.2705,1.2716,1.2704,1.2743,1.274,1.2771,1.2771,1.2774,1.2822,1.2831,1.2875,1.2894,1.2916,1.2897,1.2915,1.2887,1.2893,1.2863,1.2865,1.2757,1.2746,1.2863,1.2862,1.2861,0,1.2568,1.2559,1.2604,1.2608,1.2626,1.2631,1.264,1.269,1.2697,1.2729,1.2722,1.2736,1.2749,1.2762,1.2798,1.2814,1.2832,1.2793,1.2834,1.2821,1.2831,1.2831,1.283,1.2784,1.2782,1.2781,1.278,0,1.2467,1.2489,1.2499,1.2518,1.2527,1.2544,1.2564,1.2565,1.262,1.2626,1.2636,1.2647,1.2668,1.268,1.2703,1.2723,1.276,1.2767,1.2762,1.2747,1.2732,1.2739,1.2863,1.2769,1.277,1.2771,1.2771,1.2772,1.2386,1.2381,1.2412,1.2423,1.2443,1.2461,1.2461,1.2492,1.2502,1.2523,1.2552,1.2559,1.2589,1.2622,1.264,1.2646,1.2667,1.2659,1.2657,1.2654,1.2647,1.2731,1.265,1.2651,1.2651,1.2652,1.2652,0,1.2287,1.231,1.232,1.2347,1.2355,1.2391,1.2416,1.2421,1.2426,1.2451,1.2464,1.2476,1.249,1.2528,1.2546,1.2543,1.2561,1.2546,1.2546,1.2551,1.2627,1.263,1.2532,1.2532,1.2532,1.2532,1.2532,1.2532,1.2236,1.2229,1.2255,1.2259,1.2283,1.229,1.2301,1.2318,1.2338,1.235,1.2362,1.2387,1.2418,1.2438,1.2452,1.2464,1.2467,1.2447,1.2463,1.2534,1.2545,1.2556,1.2559,1.2447,1.2447,1.2386,1.2386,1.2385]},{"header":{"parameterUnit":"m.s-1","parameterCategory":1,"la1":30.2991,"la2":30.254,"lo1":-89.0895,"lo2":-89.0444,"dy":0.0017,"dx":0.0017,"nx":28,"ny":28,"refTime":"2023-05-01T21:00:00:Z","depth":0,"parameterNumber":3,"parameterNumberName":"V-component_of_WINDS"},"data":[0,0,0,0,0,0,0,0,0,0,0,0,0,0,0,0,0,0,0,0,0,0,0,0,0,0,0,0,0,0,0,0,0,0,0,0,0,0,0,0,0,0,0,0,0,0,0,0,0,0,0,0,0,0,0,0,0,0,1.3605,1.3606,0,1.3714,1.3715,1.3716,1.3635,1.3632,1.3628,1.3625,1.3738,1.3744,1.3751,0,0,0,0,0,0,0,0,0,0,0,0,0,1.3326,1.3332,1.3605,1.3606,1.3608,1.3714,1.3715,1.3717,1.3636,1.3631,1.3627,1.3623,1.3736,1.3744,1.3751,0,0,0,0,0,0,0,0,0,0,0,0,0,1.3442,1.3333,1.3605,1.358,1.3579,1.3713,1.3715,1.3717,1.3637,1.3631,1.3626,1.3621,1.3734,1.3743,1.3752,1.3918,0,0,1.3781,1.3785,0,0,0,0,0,0,0,0,1.3436,1.3453,1.3582,1.3582,1.3581,1.3655,1.3658,1.3784,1.3638,1.3615,1.3625,1.3618,1.3715,1.3726,1.3758,1.3923,1.3928,1.3782,1.3788,1.3792,1.3795,0,0,0,0,0,0,0,1.3428,1.3448,1.3648,1.3584,1.3583,1.3563,1.3574,1.3682,1.3694,1.3616,1.3611,1.3625,1.3714,1.3749,1.376,1.3929,1.3782,1.379,1.3796,1.38,1.4229,1.4235,0,0,0,0,0,0,1.3422,1.3441,1.3645,1.3651,1.3494,1.3573,1.3584,1.3637,1.3692,1.3695,1.3629,1.362,1.3735,1.3749,1.3764,1.3957,1.3792,1.3801,1.3806,1.4224,1.4231,1.4237,0,0,0,0,0,0,1.3417,1.3441,1.364,1.3545,1.3569,1.3583,1.3643,1.3642,1.3677,1.3702,1.3703,1.3663,1.3732,1.375,1.3878,1.396,1.3805,1.3814,1.4217,1.4226,1.4234,1.4346,0,0,0,0,0,0,1.3409,1.344,1.3503,1.3547,1.3574,1.3754,1.3648,1.3648,1.3693,1.3683,1.3734,1.3737,1.3729,1.3865,1.3888,1.397,1.3821,1.421,1.4221,1.4231,1.4335,1.4358,1.4377,0,0,0,0,0,1.3399,1.3532,1.3507,1.3532,1.3654,1.3759,1.3774,1.3761,1.37,1.3763,1.3778,1.3736,1.3947,1.3879,1.3904,1.399,1.4205,1.4218,1.423,1.4326,1.4353,1.4376,0,0,0,0,0,0,1.35,1.3538,1.351,1.3661,1.3707,1.3745,1.3824,1.3791,1.3857,1.3844,1.3826,1.3838,1.3972,1.3994,1.3917,1.415,1.4066,1.4085,1.413,1.4156,1.4177,1.4167,1.3829,0,0,0,0,0,1.3539,1.3621,1.365,1.378,1.3805,1.3811,1.3856,1.3842,1.3889,1.3908,1.3933,1.3981,1.4057,1.4109,1.4181,1.4339,1.4346,1.441,1.4431,1.4448,1.4463,1.4543,1.4571,1.4279,1.4279,1.4279,0,0,1.3622,1.3653,1.3706,1.3801,1.3835,1.3919,1.3828,1.3922,1.3984,1.3923,1.4044,1.4064,1.4116,1.4258,1.4322,1.428,1.4545,1.4464,1.4477,1.4484,1.4559,1.4587,1.4611,1.4288,1.4286,1.4285,0,0,1.3815,1.3848,1.3958,1.3993,1.4044,1.4047,1.4073,1.4115,1.4125,1.4246,1.4201,1.4274,1.4408,1.4445,1.4482,1.4684,1.4645,1.4708,1.4816,1.4894,1.4917,1.4937,1.5005,1.5031,1.4724,1.4725,1.4725,0,1.3912,1.4036,1.4019,1.4115,1.4156,1.4103,1.4213,1.4248,1.4322,1.4351,1.4304,1.4467,1.4498,1.4646,1.4695,1.4728,1.4755,1.4702,1.4915,1.4935,1.4954,1.5018,1.5045,1.4732,1.4731,1.473,1.4729,0,1.415,1.4237,1.432,1.4389,1.444,1.4543,1.454,1.4594,1.4574,1.4581,1.4703,1.4738,1.4814,1.4849,1.4832,1.4993,1.4965,1.4917,1.4832,1.4989,1.5049,1.5074,1.4742,1.4739,1.4737,1.4735,0,0,1.4411,1.4466,1.4496,1.4524,1.4576,1.4642,1.4742,1.4814,1.4859,1.4911,1.4991,1.5104,1.5058,1.5099,1.5086,1.5155,1.5307,1.5098,1.5098,1.5132,1.5482,1.5516,1.5545,1.5283,1.5288,1.5292,1.5476,0,1.4603,1.4774,1.4759,1.4921,1.4999,1.4948,1.5033,1.5073,1.5082,1.5149,1.5158,1.5236,1.5172,1.5196,1.5262,1.5275,1.5377,1.5262,1.5355,1.5359,1.5341,1.5577,1.5614,1.5787,1.55,1.5504,1.5507,0,1.4851,1.4907,1.5076,1.5111,1.5143,1.522,1.5283,1.5349,1.5392,1.5393,1.5437,1.5411,1.5508,1.5422,1.5554,1.5476,1.5514,1.5525,1.5532,1.5538,1.5441,1.5586,1.5842,1.5867,1.5545,1.5542,1.5539,0,1.5018,1.5138,1.5252,1.5279,1.5324,1.5379,1.54,1.5438,1.5481,1.5536,1.5563,1.5631,1.5667,1.5718,1.571,1.5649,1.5843,1.5757,1.5844,1.5845,1.5886,1.5883,1.6148,1.5916,1.5916,1.5915,1.5915,0,1.5233,1.5337,1.5328,1.5398,1.5512,1.5494,1.5607,1.5622,1.5655,1.5727,1.5688,1.5756,1.5742,1.5809,1.5803,1.5911,1.5929,1.593,1.5927,1.5932,1.5931,1.5955,1.5941,1.5922,1.5921,1.5919,1.5918,0,1.5439,1.5438,1.5558,1.559,1.56,1.5682,1.5708,1.5774,1.5778,1.5868,1.5888,1.5895,1.5971,1.5968,1.6056,1.6052,1.6183,1.6168,1.6168,1.6163,1.6249,1.624,1.6536,1.6572,1.632,1.6322,1.6324,0,1.5575,1.5653,1.5691,1.5735,1.5759,1.5832,1.5874,1.5859,1.5905,1.5957,1.6016,1.6088,1.6145,1.6269,1.6281,1.6347,1.633,1.6429,1.634,1.6341,1.6327,1.6321,1.6326,1.6446,1.6449,1.6451,1.6453,0,1.5814,1.5808,1.5871,1.5932,1.5984,1.6032,1.6076,1.6114,1.6103,1.6156,1.6233,1.6277,1.6363,1.6435,1.6496,1.6517,1.6483,1.6481,1.6504,1.6509,1.6504,1.6503,1.6212,1.6474,1.6472,1.6471,1.647,1.6469,1.5986,1.6052,1.6087,1.6157,1.6188,1.6229,1.629,1.63,1.6364,1.6432,1.6419,1.6504,1.6541,1.662,1.6647,1.6712,1.6676,1.6711,1.6719,1.6727,1.6734,1.6496,1.6724,1.6723,1.6723,1.6722,1.6722,0,1.622,1.6239,1.6304,1.6365,1.6419,1.6381,1.6426,1.6474,1.6548,1.6586,1.6641,1.6727,1.6795,1.6811,1.6876,1.6924,1.691,1.6941,1.6936,1.6941,1.6764,1.6736,1.6952,1.6952,1.6952,1.6952,1.6952,1.6952,1.6348,1.6454,1.6452,1.6572,1.6591,1.6673,1.6701,1.6738,1.6767,1.6863,1.6919,1.6929,1.6957,1.7022,1.7082,1.7085,1.7108,1.7146,1.7142,1.6977,1.6954,1.6932,1.6905,1.7152,1.7153,1.7312,1.7314,1.7315]}]]